www.pogodaiklimat.ru

Погода и климат >> Архив погоды >> Бельгия >> Эрнаж


ПОГОДА в Эрнаже

  • Прогноз погоды в Эрнаже
  • Монитор погоды в Эрнаже

АРХИВ ПОГОДЫ в Эрнаже

Время (UTC), дата Ветер
(напр.,м/с)
 
Видим.   Явления Облачность Т
(С)
Тd
(С)
f
(%)
Тe
(С)
Тes
(С)
Комфортность P
(гПа)
Po
(гПа)
Тmin
(С)
Tmax
(С)
R
(мм)
R24
(мм)
S
(см)
05 10.07 В 1 н/о н/о +10.9 +8.8 87 +11 +11 1021.6 1002.1 8
06 10.07 ЮВ 1
{3}
н/о н/о +13.0 +7.7 70 +13 +13 1021.5 1002.2 +8.8 40
07 10.07 В 1 н/о н/о +15.6 +8.4 62 +16 +16 1021.4 1002.3 83
08 10.07 Ю 1 н/о н/о +17.7 +6.7 48 +19 +19 1021.1 1002.1 134
09 10.07 С 1
{3}
н/о н/о +19.1 +6.0 42 +21 +21 комфорт 1021.0 1002.1 172
10 10.07 ЮЗ 2 н/о н/о +20.0 +5.4 38 +21 +21 комфорт 1020.7 1001.9 218
11 10.07 ЮЗ 2 н/о н/о +21.6 +7.4 40 +23 +23 комфорт 1020.5 1001.7 229
12 10.07 СЗ 3 н/о н/о +22.3 +8.3 41 +24 +24 комфорт 1019.9 1001.3 239
13 10.07 З 3 н/о н/о +22.8 +9.0 41 +24 +24 комфорт 1019.5 1000.9 191
14 10.07 З 2 н/о н/о +22.6 +10.0 45 +24 +24 комфорт 1019.1 1000.5 160
15 10.07 З 3 н/о н/о +23.4 +10.6 44 +25 +25 комфорт 1018.7 1000.1 175
16 10.07 СЗ 2 н/о н/о +22.8 +10.8 47 +25 +25 комфорт 1018.4 999.8 133
17 10.07 СЗ 2 н/о н/о +22.2 +12.0 52 +25 +25 комфорт 1018.0 999.3 70
18 10.07 СЗ 2
{6}
н/о н/о +22.2 +13.1 56 +25 +25 комфорт 1017.7 999.1 +23.4 50
19 10.07 штиль 0 н/о н/о +20.5 +14.2 67 +23 +23 комфорт 1017.7 999.0 19
20 10.07 В 1 н/о н/о +19.0 +13.2 69 +21 +21 комфорт 1017.7 998.9 3
21 10.07 В 1 н/о н/о +18.2 +12.9 71 +20 +20 1017.4 998.5
22 10.07 ЮВ 2 н/о н/о +17.0 +12.7 76 +17 +17 1017.1 998.2
23 10.07 ЮВ 1 н/о н/о +16.7 +12.0 74 +18 +18 1016.8 997.9
00 11.07 ЮВ 2 н/о н/о +14.9 +11.0 77 +15 +15 1016.4 997.3 193
01 11.07 ЮВ 2 н/о н/о +15.2 +11.5 79 +15 +15 1016.0 996.9
02 11.07 Ю 3 н/о н/о +16.0 +11.7 76 +16 +16 1015.2 996.2
03 11.07 Ю 2 н/о н/о +16.3 +11.5 73 +16 +16 1014.9 996.0
04 11.07 Ю 2 н/о н/о +16.9 +11.4 70 +17 +17 1014.6 995.7
05 11.07 Ю 2 н/о н/о +16.9 +11.9 72 +17 +17 1014.4 995.5 4
06 11.07 Ю 2
{4}
н/о н/о +17.2 +12.5 74 +18 +18 1014.0 995.1 +14.8 12
07 11.07 Ю 3 н/о н/о +17.4 +13.2 76 +17 +17 1014.0 995.1 17
08 11.07 ЮЗ 2 н/о н/о +17.6 +14.3 81 +18 +18 1014.2 995.4 28
09 11.07 Ю 4
{6}
н/о н/о +18.8 +14.5 76 +20 +20 1014.1 995.4 65
10 11.07 ЮЗ 4 н/о н/о +19.9 +14.3 70 +22 +22 комфорт 1013.8 995.1 113
11 11.07 ЮЗ 4 н/о н/о +21.3 +13.9 63 +24 +24 комфорт 1013.5 994.9 135
12 11.07 ЮЗ 5
{8}
н/о н/о +23.1 +12.6 52 +26 +26 жарко 1013.1 994.6 188
13 11.07 З 4 н/о н/о +22.6 +11.2 48 +25 +25 комфорт 1013.2 994.6 116
14 11.07 З 5 н/о н/о +23.7 +11.2 45 +25 +25 комфорт 1013.1 994.6 118
15 11.07 З 5 н/о н/о +24.5 +10.5 41 +26 +26 жарко 1012.8 994.4 205
16 11.07 З 6 н/о н/о +24.1 +10.5 42 +25 +25 комфорт 1012.7 994.3 174
17 11.07 З 5 н/о н/о +23.9 +10.0 41 +25 +25 комфорт 1012.4 993.9 120
18 11.07 З 4
{9}
н/о н/о +24.0 +9.3 39 +25 +25 комфорт 1012.6 994.1 +24.5 88
19 11.07 З 3 н/о н/о +21.8 +10.1 47 +23 +23 комфорт 1012.8 994.2 36
20 11.07 З 2 н/о н/о +18.7 +9.0 53 +20 +20 1013.1 994.3 8
21 11.07 Ю 1 н/о н/о +17.5 +9.7 60 +19 +19 1013.2 994.4
22 11.07 Ю 1 н/о н/о +15.8 +10.2 69 +17 +17 1013.3 994.3
23 11.07 Ю 1 н/о н/о +14.2 +10.1 76 +15 +15 1013.4 994.3
00 12.07 Ю 1 н/о н/о +13.9 +10.5 80 +14 +14 1013.2 994.1 143
01 12.07 Ю 1 н/о н/о +14.4 +11.6 83 +15 +15 1012.6 993.6
02 12.07 ЮЗ 2 н/о н/о +15.5 +11.6 78 +15 +15 1012.5 993.6
03 12.07 ЮЗ 3 н/о н/о +14.9 +10.5 75 +14 +14 1012.3 993.3
04 12.07 ЮЗ 3 н/о н/о +13.8 +9.9 77 +13 +13 1012.0 992.9
05 12.07 ЮЗ 3 н/о н/о +13.6 +9.9 78 +12 +12 1012.4 993.3 6
06 12.07 ЮЗ 3
{5}
н/о н/о +15.0 +10.9 76 +14 +14 1012.7 993.7 +13.6 37
07 12.07 З 3 н/о н/о +16.6 +12.1 75 +16 +16 1012.6 993.8 78
08 12.07 ЮЗ 4 н/о н/о +18.0 +12.9 72 +18 +18 1012.6 993.8 120
09 12.07 З 4
{6}
н/о н/о +19.6 +13.9 70 +21 +21 комфорт 1012.7 994.0 163
10 12.07 З 5 н/о н/о +20.2 +14.3 69 +22 +22 комфорт 1012.8 994.1 137
11 12.07 З 4 н/о н/о +22.5 +14.7 61 +26 +26 жарко 1012.2 993.7 229
12 12.07 СВ 1
{12}
н/о н/о +18.1 +15.4 84 +19 +19 1012.9 994.1 118
13 12.07 СЗ 3 н/о н/о +19.4 +17.4 88 +22 +22 комфорт 1012.8 994.2 66
14 12.07 СЗ 7 н/о н/о +19.3 +16.1 82 +20 +20 1013.2 994.5 114
15 12.07 СЗ 6 н/о н/о +19.8 +15.7 77 +22 +22 комфорт 1013.4 994.8 124
16 12.07 СЗ 6 н/о н/о +20.2 +14.1 68 +22 +22 комфорт 1013.6 995.0 109
17 12.07 С 5 н/о н/о +19.8 +13.1 65 +21 +21 комфорт 1014.0 995.3 119
18 12.07 С 4
{11}
н/о н/о +18.8 +12.7 68 +20 +20 1014.6 995.8 +22.5 47
19 12.07 СЗ 4 н/о н/о +18.3 +12.6 69 +19 +19 1015.3 996.5 31
20 12.07 СЗ 3 н/о н/о +16.6 +12.9 79 +16 +16 1016.0 997.1 5
21 12.07 З 3 н/о н/о +14.9 +12.0 83 +14 +14 1016.7 997.7
22 12.07 З 2 н/о н/о +13.5 +11.6 88 +13 +13 1016.9 997.8
23 12.07 З 2 н/о н/о +12.6 +11.4 92 +12 +12 1017.3 998.1
00 13.07 З 2 н/о н/о +12.0 +11.2 95 +11 +11 1017.4 998.1 151
01 13.07 СЗ 4 н/о н/о +13.1 +12.6 97 +11 +11 1017.8 998.6
02 13.07 СЗ 2 н/о н/о +14.0 +13.4 96 +13 +13 1017.5 998.4
03 13.07 З 2 н/о н/о +14.1 +13.2 94 +14 +14 1017.6 998.5
04 13.07 З 2 н/о н/о +14.1 +13.2 94 +14 +14 1018.2 999.1
05 13.07 З 2 н/о н/о +14.5 +13.6 94 +14 +14 1018.6 999.5 3
06 13.07 З 3
{6}
н/о н/о +15.3 +14.1 93 +15 +15 1018.9 999.8 +11.8 12
07 13.07 З 3 н/о н/о +16.3 +13.8 85 +16 +16 1019.3 1000.3 41
08 13.07 З 3 н/о н/о +15.9 +14.3 90 +15 +15 1019.7 1000.7 46
09 13.07 З 3
{7}
н/о н/о +16.5 +14.6 89 +16 +16 1019.8 1000.8 75
10 13.07 СЗ 3 н/о н/о +17.5 +14.8 84 +18 +18 1019.7 1000.8 81
11 13.07 С 2 н/о н/о +19.1 +15.4 79 +21 +21 комфорт 1019.6 1000.8 129
12 13.07 СЗ 5 н/о н/о +18.5 +14.5 78 +19 +19 1019.7 1000.8 +99.0 79 284
13 13.07 СЗ 4 н/о н/о +19.5 +14.6 73 +21 +21 комфорт 1019.6 1000.8 115
14 13.07 З 5 н/о н/о +21.0 +13.5 62 +24 +24 комфорт 1019.5 1000.8 140
15 13.07 С 5 н/о н/о +18.1 +14.1 77 +18 +18 1019.7 1000.8 33
16 13.07 СЗ 5 н/о н/о +18.9 +13.6 71 +20 +20 1019.6 1000.8 58
17 13.07 СЗ 7 н/о н/о +18.4 +13.7 74 +18 +18 1019.7 1000.8 72
18 13.07 С 6
{10}
н/о н/о +18.4 +13.1 71 +18 +18 1019.8 1000.9 +21.6 56
19 13.07 С 6 н/о н/о +17.3 +12.7 74 +16 +16 1020.2 1001.3 19
20 13.07 С 4 н/о н/о +16.2 +12.4 78 +15 +15 1020.7 1001.6 10
21 13.07 СЗ 4 н/о н/о +14.7 +12.4 86 +13 +13 1021.0 1001.9
22 13.07 СЗ 4 н/о н/о +13.7 +11.9 89 +12 +12 1021.5 1002.2
23 13.07 С 2 н/о н/о +12.6 +11.1 91 +12 +12 1021.4 1002.1
00 14.07 С 3 н/о н/о +12.9 +12.1 95 +11 +11 1021.0 1001.7 97
01 14.07 С 2 н/о н/о +13.7 +12.8 94 +13 +13 1021.1 1001.9
02 14.07 С 2 н/о н/о +13.6 +12.8 95 +13 +13 1021.0 1001.7
03 14.07 С 3 н/о н/о +13.5 +12.4 93 +12 +12 1021.0 1001.7
04 14.07 С 3 н/о н/о +13.2 +11.5 89 +12 +12 1020.5 1001.3
05 14.07 н/о н/о +13.4 +11.1 86 1020.5 1001.3 3
06 14.07 С 3
{6}
н/о н/о +13.3 +11.2 87 +12 +12 1020.8 1001.6 +11.8 12
07 14.07 С 4 н/о н/о +14.1 +11.0 82 +13 +13 1020.9 1001.7 30
08 14.07 СВ 4 н/о н/о +14.9 +10.2 73 +14 +14 1021.4 1002.2 67
09 14.07 С 4
{6}
н/о н/о +15.8 +10.8 72 +15 +15 1021.2 1002.1 95
10 14.07 С 4 н/о н/о +15.9 +10.7 71 +15 +15 1021.2 1002.1 104
11 14.07 С 3 н/о н/о +16.6 +11.0 69 +16 +16 1021.2 1002.1 128
12 14.07 н/о н/о +16.2 +11.5 74 1021.1 1002.1 45
13 14.07 СВ 3 н/о н/о +17.0 +11.7 71 +17 +17 1020.9 1001.9 103
14 14.07 С 4 н/о н/о +17.3 +12.4 73 +17 +17 1020.6 1001.6 68
15 14.07 С 4 н/о н/о +17.3 +12.6 74 +17 +17 1020.6 1001.6 70
16 14.07 СВ 4 н/о н/о +17.3 +11.0 66 +17 +17 1020.4 1001.4 79
17 14.07 н/о н/о +16.9 +12.4 75 1020.5 1001.5 36
18 14.07 С 5
{7}
н/о н/о +16.7 +11.6 72 +16 +16 1020.6 1001.6 +17.6 35
19 14.07 С 3 н/о н/о +16.2 +11.4 73 +16 +16 1020.7 1001.6 14
20 14.07 С 3 н/о н/о +15.5 +12.1 80 +15 +15 1020.8 1001.7 3
21 14.07 С 3 н/о н/о +14.1 +11.6 85 +13 +13 1020.9 1001.7
22 14.07 С 3 н/о н/о +14.4 +12.1 86 +13 +13 1021.2 1002.0
23 14.07 С 4 н/о н/о +14.0 +11.0 82 +13 +13 1021.3 1002.1
00 15.07 С 3 н/о н/о +12.2 +10.3 88 +11 +11 1021.2 1001.9 90
01 15.07 С 4 н/о н/о +11.0 +9.6 91 +9 +9 1021.2 1001.7
02 15.07 С 3 н/о н/о +10.2 +9.3 94 +8 +8 1021.0 1001.5
03 15.07 С 3 н/о н/о +9.7 +8.9 95 +7 +7 1020.9 1001.4
04 15.07 С 3 н/о н/о +9.2 +8.6 96 +7 +7 1021.2 1001.6
05 15.07 СЗ 1 н/о н/о +10.6 +10.2 97 +10 +10 1021.1 1001.6 4
06 15.07 С 1
{5}
н/о н/о +11.8 +11.4 97 +12 +12 1021.2 1001.9 +9.2 18
07 15.07 С 2 н/о н/о +13.2 +11.6 90 +12 +12 1021.2 1001.9 37
08 15.07 н/о н/о +14.2 +10.4 78 1021.3 1002.1 60
09 15.07 С 3
{4}
н/о н/о +14.7 +9.3 70 +14 +14 1021.5 1002.3 64
10 15.07 н/о н/о +15.1 +9.2 68 1021.3 1002.1 77
11 15.07 н/о н/о +16.0 +9.6 66 1020.9 1001.9 120
12 15.07 С 3 н/о н/о +15.6 +10.5 72 +15 +15 1021.3 1002.2 82
13 15.07 СЗ 3 н/о н/о +16.3 +10.7 69 +16 +16 1021.2 1002.1 96
14 15.07 С 5 н/о н/о +15.6 +10.8 73 +14 +14 1021.3 1002.2 67
15 15.07 С 3 н/о н/о +15.9 +11.3 74 +15 +15 1021.2 1002.2 59
16 15.07 С 4 н/о н/о +16.5 +10.9 69 +16 +16 1020.9 1001.9 77
17 15.07 н/о н/о +16.5 +10.2 66 1020.6 1001.5 70
18 15.07 С 2
{7}
н/о н/о +16.2 +10.8 70 +16 +16 1020.4 1001.4 +16.9 33
19 15.07 С 2 н/о н/о +15.7 +11.3 75 +16 +16 1020.5 1001.4 11
20 15.07 С 3 н/о н/о +15.0 +11.5 80 +14 +14 1020.6 1001.4 2
21 15.07 С 2 н/о н/о +14.0 +10.9 82 +13 +13 1020.8 1001.6
22 15.07 СЗ 2 н/о н/о +13.6 +11.0 84 +13 +13 1021.0 1001.8
23 15.07 С 2 н/о н/о +12.4 +10.2 86 +11 +11 1021.1 1001.7
00 16.07 С 2 н/о н/о +12.9 +11.6 92 +12 +12 1020.9 1001.6 88
01 16.07 С 2 н/о н/о +13.0 +11.5 91 +12 +12 1020.9 1001.6
02 16.07 н/о н/о +12.6 +11.4 92 1020.6 1001.3
03 16.07 С 1 н/о н/о +12.4 +11.3 93 +12 +12 1020.2 1000.9
04 16.07 С 1 н/о н/о +12.5 +11.6 94 +12 +12 1020.3 1001.0
05 16.07 штиль 0 н/о н/о +12.7 +11.9 95 +12 +12 1020.5 1001.3 2
06 16.07 С 2
{4}
н/о н/о +13.1 +12.2 94 +12 +12 1020.6 1001.4 +12.1 11
07 16.07 штиль 0 н/о н/о +13.9 +11.5 85 +14 +14 1020.7 1001.5 25
08 16.07 З 1 н/о н/о +14.5 +11.6 83 +15 +15 1020.8 1001.6 39
09 16.07 З 1
{2}
н/о н/о +15.0 +10.6 75 +16 +16 1020.8 1001.6 51
10 16.07 СЗ 1 н/о н/о +15.2 +9.9 71 +16 +16 1020.5 1001.4 59
11 16.07 С 1 н/о н/о +15.7 +9.9 68 +16 +16 1020.5 1001.4 73
12 16.07 С 2 н/о н/о +16.6 +10.2 66 +17 +17 1020.1 1001.0 114
13 16.07 СВ 2 н/о н/о +17.3 +10.2 63 +18 +18 1019.7 1000.7 156
14 16.07 СЗ 2 н/о н/о +18.7 +10.4 58 +20 +20 1019.3 1000.4 182
15 16.07 СВ 2 н/о н/о +19.2 +10.6 57 +21 +21 комфорт 1018.8 999.9 185
16 16.07 СВ 2 н/о н/о +19.1 +10.5 57 +21 +21 комфорт 1018.4 999.6 125
17 16.07 С 2 н/о н/о +19.4 +10.4 56 +21 +21 комфорт 1018.1 999.3 111
18 16.07 С 1
{4}
н/о н/о +19.4 +11.1 59 +22 +22 комфорт 1017.9 999.1 +19.7 82
19 16.07 С 2 н/о н/о +18.1 +12.2 68 +19 +19 1018.0 999.1 35
20 16.07 С 2 н/о н/о +15.3 +10.9 75 +15 +15 1018.1 999.1 6
21 16.07 С 1 н/о н/о +12.7 +9.9 83 +13 +13 1018.5 999.2
22 16.07 штиль 0 н/о н/о +11.4 +9.1 86 +11 +11 1018.4 999.1
23 16.07 штиль 0 н/о н/о +10.6 +8.9 89 +10 +10 1018.5 999.1
00 17.07 ЮВ 1 н/о н/о +9.9 +9.0 94 +9 +9 1018.3 998.9 126
01 17.07 З 1 н/о н/о +10.0 +9.4 96 +9 +9 1018.2 998.7
02 17.07 штиль 0 н/о н/о +8.7 +8.1 96 +8 +8 1017.8 998.3
03 17.07 Ю 1 н/о н/о +8.4 +8.0 97 +7 +7 1017.3 997.8

 

Местоположение метеостанции Эрнаж (Бельгия): широта 50.67 долгота 4.68 высота над уровнем моря 158 м.

В архиве по умолчанию представлена погода в Эрнаже за последнюю неделю. Архивные данные за месяц целиком и за предыдущие месяцы, начиная с января 2011 года, Вы можете получить, выбрав интересующий диапазон дат из раскрывающегося списка и нажав кнопку "Ввод!".


*Определитесь, кто Вы:
робот инопланетянин человек

Внимание! Время в таблицах - всемирное. Для получения местного времени необходимо прибавить поправку, которая равна 1 ч.

Смотрите также архив погоды в соседних городах и на ближайших метеорологических станциях:

Погода в Бовешене (Бельгия) (11 км)
Погода в Уккеле (Бельгия) (27 км)
Погода в Шарлеруа (Бельгия) (28 км)
Погода в Брюсселе (Бельгия) (28 км)
Погода в Шаффене (Бельгия) (46 км)
Погода во Флорене (Бельгия) (49 км)
Погода в Бьерсете (Бельгия) (54 км)
Погода в Антверпене (Бельгия) (61 км)
Погода в Дипенбеке (Бельгия) (61 км)
Погода в Шьевре (Бельгия) (61 км)

Пояснения к столбцам:

Ветер - указаны скорость ветра в м/с - средняя за 10 мин, порывы в срок и между сроками (в фигурных скобках) и направление, откуда дует ветер: С - северный, СВ - северо-восточный, В - восточный, ЮВ - юго-восточный, Ю - южный, ЮЗ - юго-западный, З - западный, СЗ - северо-западный.
Видимость - горизонтальная дальность видимости в метрах или километрах. При видимости от 1 до 10 км при отсутствии осадков обычно наблюдается дымка, при ухудшении видимости до 1 км и менее - туман. В сухую погоду видимость может ухудшаться дымом, пылью или мглою.
Явления - указаны атмосферные явления, наблюдавшиеся в срок или в последний час перед сроком; фигурными скобками обозначены явления, наблюдавшиеся между сроками (за 1-3 часа до срока); квадратными скобками обозначены град или гололедные отложения с указанием их диаметра в мм.
Облачность - указаны через наклонную черту общая и нижняя облачность в баллах и высота нижней границы облаков в метрах; квадратными скобками обозначены формы облаков: Ci - перистые, Cs - перисто-слоистые, Cc - перисто-кучевые, Ac - высококучевые, As - высокослоистые, Sc - слоисто-кучевые, Ns - слоисто-дождевые, Cu - кучевые, Cb - кучево-дождевые. Подробнее классификацию облаков см. в Атласе облаков (PDF).
T - Температура воздуха - температура, измеренная на высоте 2 м над землей.
Td - Температура точки росы - температура, при понижении до которой содержащийся в воздухе водяной пар достигнет насыщения.
f - Относительная влажность воздуха - влажноcть воздуха, измеренная на высоте 2 м над землей.
Te - Эффективная температура - температура, которую ощущает одетый по сезону человек в тени. Характеристика душности погоды. При расчете учитывается влияние влажности воздуха и скорости ветра на теплоощущения человека.
Tes - Эффективная температура на солнце - температура, которую ощущает человек, с поправкой на солнечный нагрев. Характеристика знойности погоды. Зависит от высоты солнца над горизонтом, облачности и скорости ветра. Ночью, в пасмурную погоду, а также при ветре 12 м/с и более поправка равна нулю.
P - Атмосферное давление - приведенное к уровню моря атмосферное давление.
Po - Атмосферное давление - измеренное на уровне метеостанции атмосферное давление.
Tmin - Минимальная температура - минимум температуры воздуха на высоте 2 м над землей.
Tmax - Максимальная температура - максимум температуры воздуха на высоте 2 м над землей.
R - Количество осадков - Количество выпавших осадков за период времени, мм. При наведении курсора мыши на число - период времени, за который выпало указанное количество осадков.
R24 - Количество осадков - Количество выпавших осадков за 24 часа, мм.
S - Снежный покров - Высота снежного покрова, см. При наведении курсора мыши на число - состояние снежного покрова и степень покрытия местности в баллах.